Main page
METAR-TAF:

METAR-TAF

Airports :

Mahshahr Airport

Mahshahr, Iran

latitude: 30-33-23N, longitude: 049-09-07E, elevation: 2 m

Current weather observation

The report was made 57 minutes ago, at 22:00 UTC
Wind 4 kt from the West/Northwest
Temperature 17°C
Humidity 82%
Pressure 1017 hPa
Visibility: 6000 m
Few clouds at a height of 3500 ft, Cumulonimbus.
Scattered clouds at a height of 4000 ft
Overcast at a height of 10000 ft

METAR: OIAM 192200Z 30004KT 6000 FEW035CB SCT040 OVC100 17/14 Q1017

Time: 02:27 (22:57 UTC)


TAF: missing

Weather observations and forecasts of more than 4000 airports (METAR and TAF reports).

The available stations are represented by yellow and red dots on the map.

Hover mouse over dot to see the name of the station.

Then click to see weather observations and forecasts.

To change the map : click on the green buttons with a black cross to zoom in, on the green button with a dash to zoom out, or on the green arrows for adjacent maps.


METAR-TAF: